FW9021 Weather Reports


Display with metric or nautical units.
time (UTC)temp
F
wind
direction
speed
MPH
gust
MPH
rain 1hr
in
rain 24hr
in
rain mn
in
humidity
%
barometer
mb
20260503200056 63 217 5.0 11.0 0.00 0.00 0.00 47 1016.9
20260503195538 63 288 5.0 11.0 0.00 0.00 0.00 47 1016.9
20260503195038 63 281 6.0 11.0 0.00 0.00 0.00 50 1016.9
20260503194548 63 257 7.0 10.0 0.00 0.00 0.00 48 1017.0
20260503194039 64 304 4.0 8.0 0.00 0.00 0.00 46 1017.0
20260503193540 64 276 4.0 8.0 0.00 0.00 0.00 46 1017.1
20260503193049 64 84 3.0 8.0 0.00 0.00 0.00 46 1017.2
20260503192538 63 83 2.0 8.0 0.00 0.00 0.00 47 1017.2
20260503192039 63 276 2.0 8.0 0.00 0.00 0.00 48 1017.3
20260503191551 63 48 1.0 8.0 0.00 0.00 0.00 48 1017.4
20260503191038 62 337 2.0 4.0 0.00 0.00 0.00 47 1017.4
20260503190543 62 240 1.0 8.0 0.00 0.00 0.00 45 1017.5
20260503190048 62 0 3.0 10.0 0.00 0.00 0.00 47 1017.5
20260503185538 62 282 3.0 10.0 0.00 0.00 0.00 46 1017.5
20260503185041 62 256 3.0 12.0 0.00 0.00 0.00 48 1017.6
20260503184603 62 214 7.0 12.0 0.00 0.00 0.00 46 1017.7
20260503184038 62 217 4.0 8.0 0.00 0.00 0.00 48 1017.7
20260503183538 62 271 3.0 6.0 0.00 0.00 0.00 47 1017.7
20260503183052 62 338 1.0 6.0 0.00 0.00 0.00 47 1017.8
20260503182537 62 274 1.0 6.0 0.00 0.00 0.00 47 1017.8
20260503182040 62 269 2.0 9.0 0.00 0.00 0.00 47 1017.8
20260503181547 61 149 3.0 9.0 0.00 0.00 0.00 47 1017.9
20260503181038 61 0 3.0 9.0 0.00 0.00 0.00 47 1018.0
20260503180541 60 292 2.0 9.0 0.00 0.00 0.00 47 1018.0
20260503180100 60 268 5.0 9.0 0.00 0.00 0.00 47 1018.0
20260503175541 60 240 0.0 7.0 0.00 0.00 0.00 49 1018.0
20260503175038 59 254 3.0 8.0 0.00 0.00 0.00 46 1018.1
20260503174546 59 243 2.0 11.0 0.00 0.00 0.00 47 1018.2
20260503174041 59 222 6.0 11.0 0.00 0.00 0.00 48 1018.1
20260503173538 59 263 4.0 8.0 0.00 0.00 0.00 49 1018.2
20260503173056 58 275 3.0 8.0 0.00 0.00 0.00 49 1018.2
20260503172540 58 181 3.0 8.0 0.00 0.00 0.00 48 1018.5
20260503172038 57 261 4.0 10.0 0.00 0.00 0.00 49 1018.5
20260503171547 57 305 4.0 11.0 0.00 0.00 0.00 49 1018.5
20260503171038 57 248 4.0 12.0 0.00 0.00 0.00 50 1018.7
20260503170539 57 245 5.0 12.0 0.00 0.00 0.00 51 1018.7
20260503160107 55 218 5.0 9.0 0.00 0.00 0.00 60 1019.4
20260503150538 53 46 3.0 8.0 0.00 0.00 0.00 65 1019.7
20260503131041 47 291 3.0 5.0 0.00 0.00 0.00 84 1019.4
20260503130614 47 256 0.0 3.0 0.00 0.00 0.00 85 1019.4
20260503110540 41 83 0.0 5.0 0.00 0.00 0.00 89 1018.3
20260503081546 44 110 1.0 2.0 0.00 0.00 0.00 86 1016.9
20260503081043 44 109 1.0 2.0 0.00 0.00 0.00 85 1016.9
20260503080542 44 109 1.0 3.0 0.00 0.00 0.00 84 1017.1
20260503072542 46 9 2.0 4.0 0.00 0.00 0.00 83 1016.6
20260503072040 46 355 2.0 5.0 0.00 0.00 0.00 83 1016.6
20260503071552 46 327 3.0 5.0 0.00 0.00 0.00 81 1016.6
20260503071041 46 349 3.0 5.0 0.00 0.00 0.00 81 1016.5
20260503070542 46 329 3.0 5.0 0.00 0.00 0.00 81 1016.5
20260503060107 47 56 2.0 3.0 0.00 0.00 0.00 81 1016.4
20260503055040 47 90 1.0 3.0 0.00 0.00 0.00 80 1016.4
20260503054550 47 109 2.0 3.0 0.00 0.00 0.00 79 1016.3
20260503054040 47 72 0.0 1.0 0.00 0.00 0.00 79 1016.3
20260503053538 48 0 0.0 3.0 0.00 0.00 0.00 78 1016.4
20260503053049 48 0 0.0 3.0 0.00 0.00 0.00 77 1016.4
20260503052538 48 95 1.0 3.0 0.00 0.00 0.00 78 1016.4
20260503052038 48 360 0.0 4.0 0.00 0.00 0.00 79 1016.4
20260503051549 49 355 1.0 4.0 0.00 0.00 0.00 79 1016.4
20260503051040 49 54 0.0 3.0 0.00 0.00 0.00 77 1016.4
20260503050541 49 5 1.0 4.0 0.00 0.00 0.00 76 1016.3
20260503050048 49 59 2.0 4.0 0.00 0.00 0.00 75 1016.4
20260503045541 50 5 1.0 4.0 0.00 0.00 0.00 75 1016.4
20260503045040 50 19 2.0 3.0 0.00 0.00 0.00 74 1016.4
20260503044546 50 11 1.0 3.0 0.00 0.00 0.00 76 1016.4
20260503044041 51 355 1.0 3.0 0.00 0.00 0.00 71 1016.4
20260503043538 51 9 2.0 4.0 0.00 0.00 0.00 73 1016.4
20260503043052 51 331 1.0 5.0 0.00 0.00 0.00 70 1016.4
20260503042538 51 336 2.0 5.0 0.00 0.00 0.00 70 1016.5
20260503042038 51 355 2.0 5.0 0.00 0.00 0.00 69 1016.4
20260503041546 51 333 3.0 5.0 0.00 0.00 0.00 67 1016.3
20260503041045 51 316 2.0 5.0 0.00 0.00 0.00 69 1016.4
20260503040541 51 351 3.0 5.0 0.00 0.00 0.00 67 1016.4
20260503040055 51 341 3.0 4.0 0.00 0.00 0.00 69 1016.3
20260503035543 52 342 2.0 4.0 0.00 0.00 0.00 68 1016.1
20260503035044 52 17 2.0 5.0 0.00 0.00 0.00 69 1016.1
20260503034550 52 5 2.0 8.0 0.00 0.00 0.00 66 1016.1
20260503034038 52 339 2.0 8.0 0.00 0.00 0.00 66 1016.0
20260503033542 52 306 2.0 8.0 0.00 0.00 0.00 66 1016.2
20260503033046 52 281 2.0 8.0 0.00 0.00 0.00 65 1016.2
20260503032538 52 303 3.0 8.0 0.00 0.00 0.00 64 1016.2
20260503032038 52 320 2.0 5.0 0.00 0.00 0.00 65 1016.2
20260503031551 52 355 2.0 5.0 0.00 0.00 0.00 64 1016.1
20260503031038 52 330 2.0 5.0 0.00 0.00 0.00 65 1016.0
20260503030538 53 314 2.0 5.0 0.00 0.00 0.00 64 1016.0
20260503030058 53 349 2.0 7.0 0.00 0.00 0.00 64 1015.9
20260503025538 53 0 2.0 7.0 0.00 0.00 0.00 64 1015.9
20260503025040 52 313 3.0 7.0 0.00 0.00 0.00 65 1015.8
20260503024549 52 295 3.0 5.0 0.00 0.00 0.00 64 1015.8
20260503024038 52 288 2.0 5.0 0.00 0.00 0.00 63 1015.6
20260503023539 52 306 2.0 6.0 0.00 0.00 0.00 65 1015.5
20260503023057 52 274 3.0 6.0 0.00 0.00 0.00 66 1015.4
20260503022540 51 322 1.0 4.0 0.00 0.00 0.00 71 1015.3
20260503022039 51 32 1.0 3.0 0.00 0.00 0.00 72 1015.3
20260503021554 51 40 1.0 3.0 0.00 0.00 0.00 71 1015.3
20260503021040 51 32 1.0 3.0 0.00 0.00 0.00 72 1015.2
20260503020540 51 0 0.0 3.0 0.00 0.00 0.00 70 1015.2
20260503020049 51 44 1.0 3.0 0.00 0.00 0.00 70 1015.1
20260503015541 51 0 0.0 3.0 0.00 0.00 0.00 68 1015.1
20260503015041 51 68 1.0 3.0 0.00 0.00 0.00 68 1015.0
20260503014544 51 65 1.0 3.0 0.00 0.00 0.00 67 1015.0
20260503014040 52 60 1.0 3.0 0.00 0.00 0.00 67 1015.0
20260503013540 52 61 1.0 4.0 0.00 0.00 0.00 67 1015.0
20260503013043 52 56 2.0 4.0 0.00 0.00 0.00 67 1014.9
20260503012544 52 24 1.0 4.0 0.00 0.00 0.00 67 1014.9
20260503012041 53 34 2.0 4.0 0.00 0.00 0.00 66 1014.7
20260503011549 53 26 1.0 3.0 0.00 0.00 0.00 65 1014.6
20260503011041 53 32 1.0 4.0 0.00 0.00 0.00 63 1014.5
20260503010539 54 29 0.0 4.0 0.00 0.00 0.00 62 1014.4
20260503010048 54 0 1.0 4.0 0.00 0.00 0.00 63 1014.3
20260503005541 55 0 0.0 4.0 0.00 0.00 0.00 60 1014.3
20260503005041 55 26 1.0 3.0 0.00 0.00 0.00 60 1014.2
20260503004556 56 32 2.0 4.0 0.00 0.00 0.00 58 1014.2
20260503004040 56 31 2.0 5.0 0.00 0.00 0.00 58 1014.1
20260503003540 56 355 2.0 5.0 0.00 0.00 0.00 54 1014.1
20260503003114 57 39 2.0 6.0 0.00 0.00 0.00 52 1013.8
20260503002540 57 26 3.0 7.0 0.00 0.00 0.00 49 1013.8
20260503002040 57 9 3.0 8.0 0.00 0.00 0.00 49 1013.9
20260503001601 57 351 3.0 10.0 0.00 0.00 0.00 48 1013.7
20260503001043 58 340 5.0 10.0 0.00 0.00 0.00 47 1013.8
20260503000539 58 13 5.0 11.0 0.00 0.00 0.00 44 1013.5
20260503000047 58 15 5.0 11.0 0.00 0.00 0.00 44 1013.5
20260502235540 58 21 3.0 14.0 0.00 0.00 0.00 46 1013.4
20260502235041 58 12 5.0 14.0 0.00 0.00 0.00 44 1013.3
20260502234545 59 45 5.0 11.0 0.00 0.00 0.00 44 1013.3
20260502234040 59 355 4.0 15.0 0.00 0.00 0.00 44 1013.2
20260502233540 59 352 6.0 15.0 0.00 0.00 0.00 46 1013.2
20260502233044 59 20 5.0 13.0 0.00 0.00 0.00 44 1013.2
20260502232538 60 15 7.0 20.0 0.00 0.00 0.00 43 1013.2
20260502232038 60 5 6.0 20.0 0.00 0.00 0.00 47 1013.2
20260502231552 60 5 7.0 20.0 0.00 0.00 0.00 42 1013.1
20260502231042 60 352 6.0 14.0 0.00 0.00 0.00 42 1013.1
20260502230539 60 328 9.0 14.0 0.00 0.00 0.00 42 1013.1
20260502230051 60 27 7.0 14.0 0.00 0.00 0.00 43 1013.0
20260502225541 60 304 7.0 14.0 0.00 0.00 0.00 41 1013.0
20260502225038 60 15 8.0 14.0 0.00 0.00 0.00 42 1013.1
20260502224549 60 352 7.0 14.0 0.00 0.00 0.00 41 1013.1
20260502224038 60 317 6.0 14.0 0.00 0.00 0.00 42 1013.2
20260502223538 60 333 7.0 15.0 0.00 0.00 0.00 42 1013.1
20260502223046 60 311 8.0 24.0 0.00 0.00 0.00 41 1013.2
20260502222537 60 10 11.0 24.0 0.00 0.00 0.00 41 1013.1
20260502222037 60 327 7.0 14.0 0.00 0.00 0.00 43 1013.1
20260502221546 60 340 6.0 14.0 0.00 0.00 0.00 41 1013.1
20260502221038 60 346 4.0 11.0 0.00 0.00 0.00 44 1013.0
20260502220542 59 352 6.0 12.0 0.00 0.00 0.00 44 1012.9
20260502220046 60 331 6.0 13.0 0.00 0.00 0.00 43 1012.8
20260502215538 60 9 3.0 15.0 0.00 0.00 0.00 43 1012.8
20260502215038 59 24 10.0 17.0 0.00 0.00 0.00 44 1012.7
20260502214543 59 37 9.0 17.0 0.00 0.00 0.00 42 1012.6
20260502214038 60 19 7.0 17.0 0.00 0.00 0.00 45 1012.7
20260502213538 59 336 5.0 20.0 0.00 0.00 0.00 45 1012.5
20260502213100 59 24 9.0 20.0 0.00 0.00 0.00 45 1012.5
20260502212538 60 44 7.0 24.0 0.00 0.00 0.00 44 1012.4
20260502212038 60 15 11.0 24.0 0.00 0.00 0.00 42 1012.4
20260502211549 60 26 13.0 22.0 0.00 0.00 0.00 42 1012.4
20260502211038 60 48 11.0 22.0 0.00 0.00 0.00 44 1012.3
20260502210540 60 355 9.0 19.0 0.00 0.00 0.00 44 1012.4
20260502210051 60 360 10.0 19.0 0.00 0.00 0.00 42 1012.4
20260502205538 60 360 10.0 18.0 0.00 0.00 0.00 41 1012.3
20260502205043 61 313 9.0 18.0 0.00 0.00 0.00 40 1012.3
20260502204546 61 352 8.0 17.0 0.00 0.00 0.00 42 1012.2
20260502204042 61 360 8.0 17.0 0.00 0.00 0.00 41 1012.4
20260502203539 60 360 9.0 17.0 0.00 0.00 0.00 41 1012.4
20260502203050 60 41 11.0 22.0 0.00 0.00 0.00 37 1012.4
20260502202538 60 290 10.0 28.0 0.00 0.00 0.00 39 1012.2
20260502202038 60 13 14.0 28.0 0.00 0.00 0.00 37 1012.3
20260502201548 60 28 7.0 20.0 0.00 0.00 0.00 42 1012.2
20260502201038 60 9 11.0 21.0 0.00 0.00 0.00 38 1012.2
20260502200538 60 348 11.0 21.0 0.00 0.00 0.00 39 1012.3